This is the latest recevied weather packets stored in our database for station/object N7NIP. If no packets are shown the sender has not sent any weather packets the latest 10 day(s).
| Time | Temp. | Humidity | Pressure | Rain* | Wind** | Luminosity | Snow |
|---|---|---|---|---|---|---|---|
| 1777345424 | 11.67° C | 75% | 1032 hPa | 0 mm | - | 8 W/m² | - |
| 1777345121 | 11.67° C | 76% | 1032 hPa | 0 mm | - | 10 W/m² | - |
| 1777344818 | 12.22° C | 75% | 1031.9 hPa | 0 mm | - | 13 W/m² | - |
| 1777344513 | 12.22° C | 73% | 1031.8 hPa | 0 mm | - | 17 W/m² | - |
| 1777344211 | 12.78° C | 75% | 1031.9 hPa | 0 mm | - | 20 W/m² | - |
| 1777343909 | 12.78° C | 71% | 1031.8 hPa | 0 mm | - | 24 W/m² | - |
| 1777343606 | 12.78° C | 71% | 1031.7 hPa | 0 mm | - | 26 W/m² | - |
| 1777343303 | 12.78° C | 71% | 1031.8 hPa | 0 mm | - | 28 W/m² | - |
| 1777343001 | 12.78° C | 72% | 1031.6 hPa | 0 mm | - | 33 W/m² | - |
| 1777342698 | 12.78° C | 70% | 1031.7 hPa | 0 mm | - | 39 W/m² | - |
| 1777342394 | 12.78° C | 71% | 1031.7 hPa | 0 mm | - | 47 W/m² | - |
| 1777342092 | 12.78° C | 70% | 1031.7 hPa | 0 mm | - | 52 W/m² | - |
| 1777341788 | 12.78° C | 69% | 1031.5 hPa | 0 mm | - | 60 W/m² | - |
| 1777341484 | 12.78° C | 69% | 1031.4 hPa | 0 mm | - | 68 W/m² | - |
| 1777341181 | 12.78° C | 69% | 1031.6 hPa | 0 mm | - | 73 W/m² | - |
| 1777340877 | 12.78° C | 70% | 1031.7 hPa | 0 mm | - | 78 W/m² | - |
| 1777340576 | 13.33° C | 68% | 1031.6 hPa | 0 mm | - | 88 W/m² | - |
| 1777340272 | 13.33° C | 69% | 1031.6 hPa | 0 mm | - | 96 W/m² | - |
| 1777339969 | 13.33° C | 70% | 1031.5 hPa | 0 mm | - | 93 W/m² | - |
| 1777339667 | 13.33° C | 69% | 1031.3 hPa | 0 mm | - | 99 W/m² | - |
| 1777339364 | 13.33° C | 69% | 1031.4 hPa | 0 mm | - | 109 W/m² | - |
| 1777339062 | 13.33° C | 68% | 1031.3 hPa | 0 mm | - | 111 W/m² | - |
| 1777338759 | 13.33° C | 68% | 1031.7 hPa | 0 mm | - | 111 W/m² | - |
| 1777338457 | 13.33° C | 68% | 1031.5 hPa | 0 mm | - | 110 W/m² | - |
| 1777338153 | 13.33° C | 68% | 1031.4 hPa | 0 mm | - | 83 W/m² | - |
* Rain latest hour (hover to see other rain measurements)
** Current wind speed in m/s (hover to see current wind gust speed)